Time,TemperatureF,DewpointF,PressureIn,WindDirection,WindDirectionDegrees,WindSpeedMPH,WindSpeedGustMPH,Humidity,HourlyPrecipIn,Conditions,Clouds,dailyrainin,SoftwareType,DateUTC
2013-01-16 00:03:00,66.9,56.8,29.91,NNE,19,2.4,4.3,70,0.00,,,0.00,WSDL version 420,2013-01-15 13:03:00,
2013-01-16 00:08:00,66.9,56.8,29.91,SSE,160,0.6,4.3,70,0.00,,,0.00,WSDL version 420,2013-01-15 13:08:00,
2013-01-16 00:13:00,66.7,56.8,29.91,NW,319,0.8,4.3,70,0.00,,,0.00,WSDL version 420,2013-01-15 13:13:00,
2013-01-16 00:18:00,66.7,57.0,29.91,NE,35,3.0,5.8,71,0.00,,,0.00,WSDL version 420,2013-01-15 13:18:00,
2013-01-16 00:23:00,66.7,57.0,29.91,NNE,16,1.4,5.8,71,0.00,,,0.00,WSDL version 420,2013-01-15 13:23:00,
2013-01-16 00:28:00,66.6,56.5,29.91,SW,228,0.6,4.9,70,0.00,,,0.00,WSDL version 420,2013-01-15 13:28:00,
2013-01-16 00:33:00,66.6,56.9,29.91,East,101,2.1,4.0,71,0.00,,,0.00,WSDL version 420,2013-01-15 13:33:00,
2013-01-16 00:38:00,66.5,56.8,29.91,ESE,105,0.9,4.0,71,0.00,,,0.00,WSDL version 420,2013-01-15 13:38:00,
2013-01-16 00:43:00,66.4,56.7,29.91,WSW,239,0.8,2.7,71,0.00,,,0.00,WSDL version 420,2013-01-15 13:43:00,
2013-01-16 00:48:00,66.2,56.6,29.91,East,79,1.5,3.6,71,0.00,,,0.00,WSDL version 420,2013-01-15 13:48:00,
2013-01-16 00:53:00,66.3,57.0,29.91,West,276,0.8,3.6,71,-99.99,,,-99.99,WSDL version 420,2013-01-15 13:53:00,
2013-01-16 00:58:00,66.2,56.8,29.91,NE,45,1.4,3.6,72,0.00,,,0.00,WSDL version 420,2013-01-15 13:58:00,
2013-01-16 01:03:00,66.2,56.9,29.88,East,100,1.4,3.1,72,0.00,,,0.00,WSDL version 420,2013-01-15 14:03:00,
2013-01-16 01:08:00,66.1,57.2,29.88,SSE,158,0.0,3.1,73,0.00,,,0.00,WSDL version 420,2013-01-15 14:08:00,
2013-01-16 01:13:00,65.8,56.5,29.88,East,90,0.0,2.9,72,0.00,,,0.00,WSDL version 420,2013-01-15 14:13:00,
2013-01-16 01:18:00,65.5,56.2,29.88,SE,125,0.0,0.0,72,0.00,,,0.00,WSDL version 420,2013-01-15 14:18:00,
2013-01-16 01:23:00,65.1,55.8,29.88,SE,127,0.6,1.3,72,0.00,,,0.00,WSDL version 420,2013-01-15 14:23:00,
2013-01-16 01:28:00,64.8,55.7,29.88,SSE,158,0.0,1.6,73,0.00,,,0.00,WSDL version 420,2013-01-15 14:28:00,
2013-01-16 01:33:00,64.5,55.7,29.88,SE,135,0.0,1.6,73,0.00,,,0.00,WSDL version 420,2013-01-15 14:33:00,
2013-01-16 01:38:00,64.3,55.8,29.88,SE,135,0.0,1.6,74,0.00,,,0.00,WSDL version 420,2013-01-15 14:38:00,
2013-01-16 01:43:00,63.9,55.8,29.88,SE,135,0.0,0.0,75,0.00,,,0.00,WSDL version 420,2013-01-15 14:43:00,
2013-01-16 01:48:00,63.6,55.6,29.88,SE,135,0.0,0.0,75,0.00,,,0.00,WSDL version 420,2013-01-15 14:48:00,
2013-01-16 01:53:00,63.2,55.5,29.88,SE,135,0.0,0.0,76,0.00,,,0.00,WSDL version 420,2013-01-15 14:53:00,
2013-01-16 01:58:00,63.0,55.3,29.88,SE,135,0.0,0.0,76,0.00,,,0.00,WSDL version 420,2013-01-15 14:58:00,
2013-01-16 02:03:00,62.8,55.5,29.88,SE,135,0.0,0.0,77,0.00,,,0.00,WSDL version 420,2013-01-15 15:03:00,
2013-01-16 02:08:00,62.7,55.5,29.85,SE,135,0.0,0.0,78,0.00,,,0.00,WSDL version 420,2013-01-15 15:08:00,
2013-01-16 02:13:00,62.4,55.5,29.85,SE,135,0.0,0.0,79,0.00,,,0.00,WSDL version 420,2013-01-15 15:13:00,
2013-01-16 02:18:00,62.2,55.7,29.85,SE,135,0.0,0.0,80,0.00,,,0.00,WSDL version 420,2013-01-15 15:18:00,
2013-01-16 02:23:00,62.0,55.8,29.85,SE,135,0.0,0.0,80,0.00,,,0.00,WSDL version 420,2013-01-15 15:23:00,
2013-01-16 02:28:00,61.9,55.7,29.85,SE,135,0.0,0.0,80,0.00,,,0.00,WSDL version 420,2013-01-15 15:28:00,
2013-01-16 02:33:00,61.7,55.4,29.85,SE,135,0.0,0.0,80,0.00,,,0.00,WSDL version 420,2013-01-15 15:33:00,
2013-01-16 02:38:00,61.7,55.9,29.85,SE,135,0.0,0.0,81,0.00,,,0.00,WSDL version 420,2013-01-15 15:38:00,
2013-01-16 02:43:00,61.5,55.7,29.85,SE,135,0.0,0.0,81,0.00,,,0.00,WSDL version 420,2013-01-15 15:43:00,
2013-01-16 02:48:00,61.3,55.5,29.85,SE,135,0.0,0.0,81,0.00,,,0.00,WSDL version 420,2013-01-15 15:48:00,
2013-01-16 02:53:00,61.1,55.7,29.85,SE,135,0.0,0.0,82,0.00,,,0.00,WSDL version 420,2013-01-15 15:53:00,
2013-01-16 02:58:00,61.0,55.5,29.85,SE,135,0.0,0.0,82,0.00,,,0.00,WSDL version 420,2013-01-15 15:58:00,
2013-01-16 03:03:00,60.9,55.7,29.85,SE,135,0.0,0.0,82,0.00,,,0.00,WSDL version 420,2013-01-15 16:03:00,
2013-01-16 03:08:00,61.0,55.8,29.85,SE,135,0.0,0.0,83,0.00,,,0.00,WSDL version 420,2013-01-15 16:08:00,
2013-01-16 03:13:00,60.7,55.7,29.85,SE,135,0.0,0.0,83,-99.99,,,-99.99,WSDL version 420,2013-01-15 16:13:00,
2013-01-16 03:18:00,60.6,55.6,29.85,SE,135,0.0,0.0,84,0.00,,,0.00,WSDL version 420,2013-01-15 16:18:00,
2013-01-16 03:23:00,60.5,55.8,29.85,SE,135,0.0,0.0,84,0.00,,,0.00,WSDL version 420,2013-01-15 16:23:00,
2013-01-16 03:28:00,60.4,55.7,29.85,SE,135,0.0,0.0,84,0.00,,,0.00,WSDL version 420,2013-01-15 16:28:00,
2013-01-16 03:33:00,60.4,55.9,29.85,SE,135,0.0,0.0,86,0.00,,,0.00,WSDL version 420,2013-01-15 16:33:00,
2013-01-16 03:38:00,60.4,56.1,29.85,SE,135,0.0,0.0,86,0.00,,,0.00,WSDL version 420,2013-01-15 16:38:00,
2013-01-16 03:43:00,60.5,56.4,29.85,SE,135,0.0,0.0,87,0.00,,,0.00,WSDL version 420,2013-01-15 16:43:00,
2013-01-16 03:48:00,-999.0,-99.9,29.85,SE,135,0.0,0.0,-999,0.00,,,0.00,WSDL version 420,2013-01-15 16:48:00,
2013-01-16 03:53:00,60.6,56.6,29.85,SE,135,0.0,0.0,87,0.00,,,0.00,WSDL version 420,2013-01-15 16:53:00,
2013-01-16 03:58:00,60.4,56.5,29.85,SE,135,0.0,0.0,87,0.00,,,0.00,WSDL version 420,2013-01-15 16:58:00,
2013-01-16 04:03:00,60.6,56.8,29.85,SE,135,0.0,0.0,88,0.00,,,0.00,WSDL version 420,2013-01-15 17:03:00,
2013-01-16 04:08:00,60.5,56.8,29.85,SW,230,0.0,0.0,88,0.00,,,0.00,WSDL version 420,2013-01-15 17:08:00,
2013-01-16 04:13:00,60.4,56.7,29.85,WSW,248,0.0,0.0,88,0.00,,,0.00,WSDL version 420,2013-01-15 17:13:00,
2013-01-16 04:18:00,60.3,56.7,29.85,SSW,203,0.0,0.0,88,0.00,,,0.00,WSDL version 420,2013-01-15 17:18:00,
2013-01-16 04:23:00,60.1,56.5,29.83,SW,225,0.0,0.0,88,0.00,,,0.00,WSDL version 420,2013-01-15 17:23:00,
2013-01-16 04:28:00,60.1,56.7,29.83,WSW,248,0.0,0.0,89,0.00,,,0.00,WSDL version 420,2013-01-15 17:28:00,
2013-01-16 04:33:00,60.0,56.7,29.85,WSW,248,0.0,0.0,89,0.00,,,0.00,WSDL version 420,2013-01-15 17:33:00,
2013-01-16 04:38:00,59.9,56.6,29.85,WSW,248,0.0,0.0,89,0.00,,,0.00,WSDL version 420,2013-01-15 17:38:00,
2013-01-16 04:43:00,59.8,56.6,29.85,WSW,248,0.0,0.0,90,-99.99,,,-99.99,WSDL version 420,2013-01-15 17:43:00,
2013-01-16 04:48:00,60.0,57.1,29.85,SW,225,0.0,0.0,90,0.00,,,0.00,WSDL version 420,2013-01-15 17:48:00,
2013-01-16 04:53:00,60.0,57.1,29.85,SW,225,0.0,0.0,90,0.00,,,0.00,WSDL version 420,2013-01-15 17:53:00,
2013-01-16 04:58:00,59.8,56.9,29.85,SW,225,0.0,0.0,90,0.00,,,0.00,WSDL version 420,2013-01-15 17:58:00,
2013-01-16 05:03:00,60.0,57.2,29.85,SSW,208,0.0,0.0,91,0.00,,,0.00,WSDL version 420,2013-01-15 18:03:00,
2013-01-16 05:08:00,60.2,57.6,29.85,SSW,203,0.0,0.0,91,0.00,,,0.00,WSDL version 420,2013-01-15 18:08:00,
2013-01-16 05:13:00,60.0,57.3,29.85,SSW,203,0.0,0.0,90,0.00,,,0.00,WSDL version 420,2013-01-15 18:13:00,
2013-01-16 05:18:00,59.9,57.1,29.85,SSW,203,0.0,0.0,91,0.00,,,0.00,WSDL version 420,2013-01-15 18:18:00,
2013-01-16 05:23:00,59.9,57.3,29.88,SSW,203,0.0,0.0,91,0.00,,,0.00,WSDL version 420,2013-01-15 18:23:00,
2013-01-16 05:28:00,59.6,57.0,29.88,SSW,203,0.0,0.0,91,0.00,,,0.00,WSDL version 420,2013-01-15 18:28:00,
2013-01-16 05:33:00,59.4,56.8,29.88,WSW,241,0.0,0.0,91,-99.99,,,-99.99,WSDL version 420,2013-01-15 18:33:00,
2013-01-16 05:38:00,59.4,56.8,29.88,WSW,248,0.0,0.0,91,0.00,,,0.00,WSDL version 420,2013-01-15 18:38:00,
2013-01-16 05:43:00,59.4,57.1,29.88,WSW,248,0.0,0.0,92,0.00,,,0.00,WSDL version 420,2013-01-15 18:43:00,
2013-01-16 05:48:00,59.4,57.1,29.88,WSW,248,0.0,0.0,92,0.00,,,0.00,WSDL version 420,2013-01-15 18:48:00,
2013-01-16 05:53:00,59.4,57.1,29.88,WSW,248,0.0,0.0,92,0.00,,,0.00,WSDL version 420,2013-01-15 18:53:00,
2013-01-16 05:58:00,59.5,57.3,29.88,WSW,248,0.0,0.0,92,0.00,,,0.00,WSDL version 420,2013-01-15 18:58:00,
2013-01-16 06:03:00,59.5,57.3,29.88,WSW,248,0.0,0.0,92,0.00,,,0.00,WSDL version 420,2013-01-15 19:03:00,
2013-01-16 06:08:00,59.5,57.2,29.88,WSW,248,0.0,0.0,92,0.00,,,0.00,WSDL version 420,2013-01-15 19:08:00,
2013-01-16 06:13:00,59.3,57.1,29.88,WSW,248,0.0,0.0,92,0.00,,,0.00,WSDL version 420,2013-01-15 19:13:00,
2013-01-16 06:18:00,59.2,57.1,29.88,WSW,248,0.0,0.0,93,0.00,,,0.00,WSDL version 420,2013-01-15 19:18:00,
2013-01-16 06:23:00,59.4,57.5,29.88,WSW,248,0.0,0.0,93,0.00,,,0.00,WSDL version 420,2013-01-15 19:23:00,
2013-01-16 06:28:00,59.5,57.6,29.88,WSW,248,0.0,0.0,93,0.00,,,0.00,WSDL version 420,2013-01-15 19:28:00,
2013-01-16 06:33:00,59.7,57.8,29.88,WSW,248,0.0,0.0,93,0.00,,,0.00,WSDL version 420,2013-01-15 19:33:00,
2013-01-16 06:38:00,59.8,57.9,29.88,WSW,248,0.0,0.0,93,0.00,,,0.00,WSDL version 420,2013-01-15 19:38:00,
2013-01-16 06:43:00,60.0,58.4,29.88,WSW,248,0.0,0.0,94,0.00,,,0.00,WSDL version 420,2013-01-15 19:43:00,
2013-01-16 06:48:00,60.2,58.6,29.88,WSW,248,0.0,0.0,94,0.00,,,0.00,WSDL version 420,2013-01-15 19:48:00,
2013-01-16 06:53:00,60.4,58.7,29.88,WSW,248,0.0,0.0,94,0.00,,,0.00,WSDL version 420,2013-01-15 19:53:00,
2013-01-16 06:58:00,60.5,58.9,29.88,WSW,248,0.0,0.0,94,0.00,,,0.00,WSDL version 420,2013-01-15 19:58:00,
2013-01-16 07:03:00,60.6,59.0,29.88,WSW,248,0.0,0.0,94,0.00,,,0.00,WSDL version 420,2013-01-15 20:03:00,
2013-01-16 07:08:00,60.8,59.2,29.88,WSW,248,0.0,0.0,94,0.00,,,0.00,WSDL version 420,2013-01-15 20:08:00,
2013-01-16 07:13:00,62.3,61.0,29.88,WSW,248,0.0,0.0,97,0.00,,,0.00,WSDL version 420,2013-01-15 20:13:00,
2013-01-16 07:18:00,63.3,62.6,29.91,SW,235,0.0,0.0,97,0.00,,,0.00,WSDL version 420,2013-01-15 20:18:00,
2013-01-16 07:23:00,63.3,62.4,29.91,SW,225,0.0,0.0,97,-99.99,,,-99.99,WSDL version 420,2013-01-15 20:23:00,
2013-01-16 07:28:00,64.3,63.3,29.91,SW,225,0.0,0.0,97,0.00,,,0.00,WSDL version 420,2013-01-15 20:28:00,
2013-01-16 07:33:00,64.9,63.9,29.91,SW,225,0.0,0.0,97,0.00,,,0.00,WSDL version 420,2013-01-15 20:33:00,
2013-01-16 07:38:00,65.6,64.6,29.91,NW,315,0.0,0.0,97,0.00,,,0.00,WSDL version 420,2013-01-15 20:38:00,
2013-01-16 07:43:00,66.1,64.9,29.91,SW,225,0.3,1.6,96,0.00,,,0.00,WSDL version 420,2013-01-15 20:43:00,
2013-01-16 07:48:00,66.5,65.2,29.91,WNW,296,0.0,2.5,96,0.00,,,0.00,WSDL version 420,2013-01-15 20:48:00,
2013-01-16 07:53:00,67.4,66.4,29.91,WNW,284,1.6,2.9,97,0.00,,,0.00,WSDL version 420,2013-01-15 20:53:00,
2013-01-16 07:58:00,68.3,67.2,29.91,West,276,2.9,4.0,96,0.00,,,0.00,WSDL version 420,2013-01-15 20:58:00,
2013-01-16 08:03:00,68.9,67.5,29.91,WSW,257,1.6,4.0,94,0.00,,,0.00,WSDL version 420,2013-01-15 21:03:00,
2013-01-16 08:08:00,70.0,67.2,29.91,West,281,1.9,3.6,89,0.00,,,0.00,WSDL version 420,2013-01-15 21:08:00,
2013-01-16 08:13:00,71.1,65.2,29.91,WNW,286,1.2,4.0,80,0.00,,,0.00,WSDL version 420,2013-01-15 21:13:00,
2013-01-16 08:18:00,72.0,64.2,29.91,NW,309,1.6,4.0,76,0.00,,,0.00,WSDL version 420,2013-01-15 21:18:00,
2013-01-16 08:23:00,72.9,63.5,29.91,WNW,289,2.8,4.3,71,0.00,,,0.00,WSDL version 420,2013-01-15 21:23:00,
2013-01-16 08:28:00,73.8,62.3,29.91,NW,312,2.7,4.3,67,0.00,,,0.00,WSDL version 420,2013-01-15 21:28:00,
2013-01-16 08:33:00,74.7,62.0,29.91,WNW,296,2.8,4.5,63,0.00,,,0.00,WSDL version 420,2013-01-15 21:33:00,
2013-01-16 08:38:00,75.4,60.8,29.91,West,266,3.0,4.9,60,0.00,,,0.00,WSDL version 420,2013-01-15 21:38:00,
2013-01-16 08:43:00,75.6,59.7,29.91,West,281,3.4,5.8,56,0.00,,,0.00,WSDL version 420,2013-01-15 21:43:00,
2013-01-16 08:53:00,77.0,60.6,29.91,WNW,289,1.5,4.9,57,-99.99,,,-99.99,WSDL version 420,2013-01-15 21:53:00,
2013-01-16 08:58:00,78.1,60.1,29.91,WNW,296,1.8,3.8,54,0.00,,,0.00,WSDL version 420,2013-01-15 21:58:00,
2013-01-16 09:03:00,78.8,59.6,29.91,NW,304,2.3,4.9,52,0.00,,,0.00,WSDL version 420,2013-01-15 22:03:00,
2013-01-16 09:08:00,79.8,60.3,29.91,West,270,1.6,4.9,51,0.00,,,0.00,WSDL version 420,2013-01-15 22:08:00,
2013-01-16 09:13:00,80.9,59.9,29.91,WSW,248,1.9,3.6,48,0.00,,,0.00,WSDL version 420,2013-01-15 22:13:00,
2013-01-16 09:18:00,81.4,59.1,29.91,West,259,2.1,3.6,47,0.00,,,0.00,WSDL version 420,2013-01-15 22:18:00,
2013-01-16 09:23:00,81.7,57.7,29.91,ENE,59,2.5,3.4,43,0.00,,,0.00,WSDL version 420,2013-01-15 22:23:00,
2013-01-16 09:28:00,80.8,56.4,29.91,NNE,16,3.0,4.3,44,0.00,,,0.00,WSDL version 420,2013-01-15 22:28:00,
2013-01-16 09:33:00,82.4,57.7,29.91,NE,38,1.8,4.3,42,0.00,,,0.00,WSDL version 420,2013-01-15 22:33:00,
2013-01-16 09:38:00,83.1,56.8,29.88,ENE,71,1.7,2.9,42,0.00,,,0.00,WSDL version 420,2013-01-15 22:38:00,
2013-01-16 09:43:00,85.3,58.9,29.88,West,280,1.3,2.7,40,0.00,,,0.00,WSDL version 420,2013-01-15 22:43:00,
2013-01-16 09:48:00,85.8,57.3,29.88,ENE,58,2.8,4.0,36,0.00,,,0.00,WSDL version 420,2013-01-15 22:48:00,
2013-01-16 09:53:00,86.0,57.1,29.88,North,360,1.8,4.7,36,0.00,,,0.00,WSDL version 420,2013-01-15 22:53:00,
2013-01-16 09:58:00,86.4,57.1,29.88,North,11,1.1,4.7,37,0.00,,,0.00,WSDL version 420,2013-01-15 22:58:00,
2013-01-16 10:03:00,87.5,57.5,29.88,SE,131,2.4,3.6,35,0.00,,,0.00,WSDL version 420,2013-01-15 23:03:00,
2013-01-16 10:08:00,88.7,57.9,29.88,WNW,293,1.9,3.6,34,0.00,,,0.00,WSDL version 420,2013-01-15 23:08:00,
2013-01-16 10:13:00,89.1,55.8,29.88,NW,321,3.4,4.0,32,0.00,,,0.00,WSDL version 420,2013-01-15 23:13:00,
2013-01-16 10:23:00,88.6,54.8,29.91,NNE,23,2.8,4.9,32,-99.99,,,-99.99,WSDL version 420,2013-01-15 23:23:00,
2013-01-16 10:28:00,89.1,55.1,29.91,NNW,334,1.9,4.9,32,0.00,,,0.00,WSDL version 420,2013-01-15 23:28:00,
2013-01-16 10:33:00,89.3,55.0,29.91,NNE,27,1.9,5.4,32,0.00,,,0.00,WSDL version 420,2013-01-15 23:33:00,
2013-01-16 10:38:00,90.5,55.9,29.91,SSW,194,0.4,5.4,31,0.00,,,0.00,WSDL version 420,2013-01-15 23:38:00,
2013-01-16 10:43:00,91.7,56.4,29.91,North,4,3.1,5.6,30,-99.99,,,-99.99,WSDL version 420,2013-01-15 23:43:00,
2013-01-16 10:48:00,91.2,55.5,29.91,NE,39,2.6,5.8,30,0.00,,,0.00,WSDL version 420,2013-01-15 23:48:00,
2013-01-16 10:53:00,91.2,55.2,29.91,NNE,17,2.5,6.0,30,0.00,,,0.00,WSDL version 420,2013-01-15 23:53:00,
2013-01-16 10:58:00,88.9,55.2,29.91,NE,42,3.8,7.4,33,0.00,,,0.00,WSDL version 420,2013-01-15 23:58:00,
2013-01-16 11:03:00,88.2,55.9,29.88,East,96,3.9,9.6,35,0.00,,,0.00,WSDL version 420,2013-01-16 00:03:00,
2013-01-16 11:08:00,87.2,56.2,29.88,ENE,58,6.1,10.7,35,0.00,,,0.00,WSDL version 420,2013-01-16 00:08:00,
2013-01-16 11:13:00,87.4,57.2,29.88,ENE,75,3.5,10.7,36,0.00,,,0.00,WSDL version 420,2013-01-16 00:13:00,
2013-01-16 11:18:00,87.1,56.7,29.88,East,79,3.6,8.5,36,0.00,,,0.00,WSDL version 420,2013-01-16 00:18:00,
2013-01-16 11:23:00,87.6,57.0,29.88,ENE,68,4.1,8.5,35,0.00,,,0.00,WSDL version 420,2013-01-16 00:23:00,
2013-01-16 11:28:00,86.7,56.8,29.88,South,183,3.5,7.4,36,0.00,,,0.00,WSDL version 420,2013-01-16 00:28:00,
2013-01-16 11:33:00,86.1,56.3,29.88,ESE,103,5.9,7.8,37,0.00,,,0.00,WSDL version 420,2013-01-16 00:33:00,
2013-01-16 11:38:00,86.9,57.5,29.88,ENE,70,3.5,7.8,37,0.00,,,0.00,WSDL version 420,2013-01-16 00:38:00,
2013-01-16 11:43:00,86.7,58.0,29.88,East,79,4.0,7.6,38,0.00,,,0.00,WSDL version 420,2013-01-16 00:43:00,
2013-01-16 11:48:00,87.4,58.7,29.88,East,80,4.9,7.4,38,0.00,,,0.00,WSDL version 420,2013-01-16 00:48:00,
2013-01-16 11:53:00,86.6,58.0,29.88,NE,51,4.8,6.5,38,0.00,,,0.00,WSDL version 420,2013-01-16 00:53:00,
2013-01-16 11:58:00,86.9,58.3,29.88,ENE,64,4.1,7.8,38,0.00,,,0.00,WSDL version 420,2013-01-16 00:58:00,
2013-01-16 12:03:00,86.8,58.1,29.88,ENE,76,3.9,9.2,38,0.00,,,0.00,WSDL version 420,2013-01-16 01:03:00,
2013-01-16 12:08:00,86.5,57.9,29.85,SE,124,4.3,9.2,38,0.00,,,0.00,WSDL version 420,2013-01-16 01:08:00,
2013-01-16 12:13:00,87.1,58.6,29.85,ENE,74,3.1,7.6,39,0.00,,,0.00,WSDL version 420,2013-01-16 01:13:00,
2013-01-16 12:18:00,88.7,59.5,29.85,NE,55,5.1,11.0,37,0.00,,,0.00,WSDL version 420,2013-01-16 01:18:00,
2013-01-16 12:23:00,87.2,58.5,29.85,ESE,107,3.0,11.0,38,0.00,,,0.00,WSDL version 420,2013-01-16 01:23:00,
2013-01-16 12:28:00,87.6,58.8,29.85,ENE,68,5.2,7.8,38,-99.99,,,-99.99,WSDL version 420,2013-01-16 01:28:00,
2013-01-16 12:33:00,-999.0,-99.9,29.85,ESE,113,3.4,10.7,-999,0.00,,,0.00,WSDL version 420,2013-01-16 01:33:00,
2013-01-16 12:38:00,87.5,58.8,29.85,NE,53,4.9,10.7,38,0.00,,,0.00,WSDL version 420,2013-01-16 01:38:00,
2013-01-16 12:43:00,87.4,58.7,29.85,East,90,3.6,6.0,38,0.00,,,0.00,WSDL version 420,2013-01-16 01:43:00,
2013-01-16 12:48:00,86.3,57.9,29.85,NE,53,4.3,6.5,39,0.00,,,0.00,WSDL version 420,2013-01-16 01:48:00,
2013-01-16 12:53:00,86.6,58.2,29.85,ENE,70,5.0,7.6,38,-99.99,,,-99.99,WSDL version 420,2013-01-16 01:53:00,
2013-01-16 12:58:00,86.6,58.5,29.85,East,93,3.9,7.8,39,0.00,,,0.00,WSDL version 420,2013-01-16 01:58:00,
2013-01-16 13:03:00,87.3,58.6,29.83,NNE,26,3.7,10.1,38,0.00,,,0.00,WSDL version 420,2013-01-16 02:03:00,
2013-01-16 13:08:00,-999.0,-99.9,29.83,ENE,73,5.5,10.1,-999,0.00,,,0.00,WSDL version 420,2013-01-16 02:08:00,
2013-01-16 13:13:00,88.8,60.1,29.83,ENE,68,3.1,7.8,38,0.00,,,0.00,WSDL version 420,2013-01-16 02:13:00,
2013-01-16 13:18:00,88.9,59.1,29.85,ENE,77,4.5,8.5,37,0.00,,,0.00,WSDL version 420,2013-01-16 02:18:00,
2013-01-16 13:23:00,88.2,59.0,29.85,ENE,65,5.1,8.5,38,0.00,,,0.00,WSDL version 420,2013-01-16 02:23:00,
2013-01-16 13:28:00,88.2,59.1,29.85,ENE,77,5.1,9.6,38,0.00,,,0.00,WSDL version 420,2013-01-16 02:28:00,
2013-01-16 13:33:00,87.9,58.2,29.85,NE,49,6.8,11.2,36,0.00,,,0.00,WSDL version 420,2013-01-16 02:33:00,
2013-01-16 13:38:00,88.6,57.8,29.85,ENE,62,5.4,11.2,34,0.00,,,0.00,WSDL version 420,2013-01-16 02:38:00,
2013-01-16 13:43:00,87.9,57.7,29.85,NE,41,5.0,9.6,36,0.00,,,0.00,WSDL version 420,2013-01-16 02:43:00,
2013-01-16 13:48:00,88.9,58.5,29.85,ENE,71,4.2,9.2,37,0.00,,,0.00,WSDL version 420,2013-01-16 02:48:00,
2013-01-16 13:53:00,90.8,59.6,29.85,NE,51,4.1,8.7,34,0.00,,,0.00,WSDL version 420,2013-01-16 02:53:00,
2013-01-16 13:58:00,91.2,59.3,29.85,ESE,116,3.4,5.6,35,0.00,,,0.00,WSDL version 420,2013-01-16 02:58:00,
2013-01-16 14:03:00,91.3,58.9,29.85,ENE,68,4.4,8.7,34,0.00,,,0.00,WSDL version 420,2013-01-16 03:03:00,
2013-01-16 14:08:00,89.3,57.7,29.85,ENE,70,4.4,10.5,35,0.00,,,0.00,WSDL version 420,2013-01-16 03:08:00,
2013-01-16 14:13:00,89.6,57.5,29.85,NE,51,3.9,10.5,34,0.00,,,0.00,WSDL version 420,2013-01-16 03:13:00,
2013-01-16 14:18:00,87.8,56.0,29.85,East,81,3.9,8.7,35,0.00,,,0.00,WSDL version 420,2013-01-16 03:18:00,
2013-01-16 14:23:00,90.2,58.9,29.85,NE,34,4.0,8.5,35,0.00,,,0.00,WSDL version 420,2013-01-16 03:23:00,
2013-01-16 14:28:00,88.6,56.7,29.85,ENE,77,5.3,12.1,34,0.00,,,0.00,WSDL version 420,2013-01-16 03:28:00,
2013-01-16 14:33:00,88.8,57.1,29.85,SE,135,4.3,12.1,34,-99.99,,,-99.99,WSDL version 420,2013-01-16 03:33:00,
2013-01-16 14:38:00,-999.0,-99.9,29.85,ENE,71,5.6,10.1,-999,0.00,,,0.00,WSDL version 420,2013-01-16 03:38:00,
2013-01-16 14:43:00,88.7,56.5,29.85,ENE,68,5.4,10.1,33,0.00,,,0.00,WSDL version 420,2013-01-16 03:43:00,
2013-01-16 14:48:00,87.3,55.3,29.85,ENE,68,6.9,12.1,34,0.00,,,0.00,WSDL version 420,2013-01-16 03:48:00,
2013-01-16 14:53:00,87.2,56.4,29.85,NE,34,5.1,12.1,35,0.00,,,0.00,WSDL version 420,2013-01-16 03:53:00,
2013-01-16 14:58:00,88.3,56.6,29.85,NE,48,5.4,10.3,34,0.00,,,0.00,WSDL version 420,2013-01-16 03:58:00,
2013-01-16 15:03:00,88.3,55.9,29.85,ENE,62,5.1,10.3,34,0.00,,,0.00,WSDL version 420,2013-01-16 04:03:00,
2013-01-16 15:08:00,87.4,55.7,29.85,East,81,5.8,7.8,34,0.00,,,0.00,WSDL version 420,2013-01-16 04:08:00,
2013-01-16 15:13:00,88.7,56.2,29.85,East,83,3.4,10.3,33,0.00,,,0.00,WSDL version 420,2013-01-16 04:13:00,
2013-01-16 15:18:00,90.8,56.7,29.85,NNE,29,4.0,10.3,31,0.00,,,0.00,WSDL version 420,2013-01-16 04:18:00,
2013-01-16 15:23:00,90.2,55.1,29.85,NE,42,6.1,8.7,30,-99.99,,,-99.99,WSDL version 420,2013-01-16 04:23:00,
2013-01-16 15:28:00,88.8,54.3,29.85,ENE,59,5.2,10.7,31,0.00,,,0.00,WSDL version 420,2013-01-16 04:28:00,
2013-01-16 15:33:00,88.3,53.6,29.85,East,93,6.3,10.7,31,0.00,,,0.00,WSDL version 420,2013-01-16 04:33:00,
2013-01-16 15:38:00,-999.0,-99.9,29.85,ENE,59,8.1,12.8,-999,0.00,,,0.00,WSDL version 420,2013-01-16 04:38:00,
2013-01-16 15:43:00,87.7,53.3,29.85,ENE,74,6.3,12.8,31,0.00,,,0.00,WSDL version 420,2013-01-16 04:43:00,
2013-01-16 15:48:00,86.4,52.2,29.83,ENE,64,7.4,15.4,31,0.00,,,0.00,WSDL version 420,2013-01-16 04:48:00,
2013-01-16 15:53:00,86.9,52.7,29.83,East,84,5.6,15.4,31,0.00,,,0.00,WSDL version 420,2013-01-16 04:53:00,
2013-01-16 15:58:00,87.7,52.9,29.83,ENE,77,5.3,14.3,30,0.00,,,0.00,WSDL version 420,2013-01-16 04:58:00,
2013-01-16 16:03:00,87.8,52.5,29.83,ENE,64,5.9,14.3,30,0.00,,,0.00,WSDL version 420,2013-01-16 05:03:00,
2013-01-16 16:08:00,88.3,53.0,29.83,NE,45,5.3,9.4,30,0.00,,,0.00,WSDL version 420,2013-01-16 05:08:00,
2013-01-16 16:13:00,88.3,52.4,29.83,NE,45,4.7,9.4,29,0.00,,,0.00,WSDL version 420,2013-01-16 05:13:00,
2013-01-16 16:18:00,88.5,52.2,29.83,NE,56,6.4,13.0,29,-99.99,,,-99.99,WSDL version 420,2013-01-16 05:18:00,
2013-01-16 16:23:00,88.5,52.2,29.83,ENE,71,4.9,13.0,29,0.00,,,0.00,WSDL version 420,2013-01-16 05:23:00,
2013-01-16 16:28:00,88.8,52.5,29.83,ENE,70,6.7,10.3,29,0.00,,,0.00,WSDL version 420,2013-01-16 05:28:00,
2013-01-16 16:33:00,89.2,52.5,29.83,NE,45,3.3,10.3,28,0.00,,,0.00,WSDL version 420,2013-01-16 05:33:00,
2013-01-16 16:38:00,89.6,52.2,29.83,NE,41,4.5,8.9,28,0.00,,,0.00,WSDL version 420,2013-01-16 05:38:00,
2013-01-16 16:43:00,90.0,52.5,29.83,NNE,23,6.5,10.5,28,0.00,,,0.00,WSDL version 420,2013-01-16 05:43:00,
2013-01-16 16:48:00,89.3,52.5,29.83,East,79,4.6,10.5,28,0.00,,,0.00,WSDL version 420,2013-01-16 05:48:00,
2013-01-16 16:58:00,89.5,52.1,29.80,NNE,32,3.5,9.4,28,0.00,,,0.00,WSDL version 420,2013-01-16 05:58:00,
2013-01-16 17:03:00,90.3,52.1,29.83,NE,53,6.0,10.3,27,0.00,,,0.00,WSDL version 420,2013-01-16 06:03:00,
2013-01-16 17:08:00,89.4,51.8,29.83,East,86,6.1,10.3,28,0.00,,,0.00,WSDL version 420,2013-01-16 06:08:00,
2013-01-16 17:13:00,89.3,52.0,29.83,East,84,2.9,10.1,28,-99.99,,,-99.99,WSDL version 420,2013-01-16 06:13:00,
2013-01-16 17:18:00,89.3,52.0,29.80,ENE,62,2.6,8.1,28,0.00,,,0.00,WSDL version 420,2013-01-16 06:18:00,
2013-01-16 17:23:00,89.2,51.8,29.80,ENE,71,5.6,7.8,28,0.00,,,0.00,WSDL version 420,2013-01-16 06:23:00,
2013-01-16 17:28:00,88.6,51.4,29.80,East,96,6.3,7.8,28,0.00,,,0.00,WSDL version 420,2013-01-16 06:28:00,
2013-01-16 17:33:00,88.3,51.5,29.80,North,360,4.2,7.6,29,0.00,,,0.00,WSDL version 420,2013-01-16 06:33:00,
2013-01-16 17:38:00,87.9,51.7,29.80,ENE,60,4.8,10.1,29,0.00,,,0.00,WSDL version 420,2013-01-16 06:38:00,
2013-01-16 17:43:00,87.3,51.2,29.80,East,80,5.0,11.0,29,0.00,,,0.00,WSDL version 420,2013-01-16 06:43:00,
2013-01-16 17:48:00,86.5,50.8,29.80,NE,42,4.2,11.0,30,0.00,,,0.00,WSDL version 420,2013-01-16 06:48:00,
2013-01-16 17:53:00,86.3,51.3,29.80,ENE,61,6.4,8.7,30,0.00,,,0.00,WSDL version 420,2013-01-16 06:53:00,
2013-01-16 17:58:00,85.6,51.5,29.80,NE,53,4.1,8.7,31,0.00,,,0.00,WSDL version 420,2013-01-16 06:58:00,
2013-01-16 18:03:00,85.8,51.7,29.80,NE,56,4.1,8.7,31,0.00,,,0.00,WSDL version 420,2013-01-16 07:03:00,
2013-01-16 18:08:00,85.6,51.6,29.80,East,87,4.0,8.7,31,0.00,,,0.00,WSDL version 420,2013-01-16 07:08:00,
2013-01-16 18:13:00,85.4,51.4,29.80,East,81,3.1,7.4,31,0.00,,,0.00,WSDL version 420,2013-01-16 07:13:00,
2013-01-16 18:18:00,84.9,51.8,29.80,East,80,3.0,5.4,32,0.00,,,0.00,WSDL version 420,2013-01-16 07:18:00,
2013-01-16 18:23:00,84.2,51.6,29.80,ENE,71,4.4,6.5,33,0.00,,,0.00,WSDL version 420,2013-01-16 07:23:00,
2013-01-16 18:28:00,83.4,52.2,29.80,East,82,4.1,7.4,34,0.00,,,0.00,WSDL version 420,2013-01-16 07:28:00,
2013-01-16 18:33:00,82.9,52.7,29.80,ESE,105,4.0,7.4,36,0.00,,,0.00,WSDL version 420,2013-01-16 07:33:00,
2013-01-16 18:38:00,82.2,53.6,29.80,NE,53,2.1,8.5,38,0.00,,,0.00,WSDL version 420,2013-01-16 07:38:00,
2013-01-16 18:43:00,81.8,54.2,29.80,East,96,5.4,8.7,39,0.00,,,0.00,WSDL version 420,2013-01-16 07:43:00,
2013-01-16 18:48:00,80.9,54.4,29.80,North,356,3.6,9.2,40,0.00,,,0.00,WSDL version 420,2013-01-16 07:48:00,
2013-01-16 18:53:00,80.8,54.5,29.80,NNE,26,2.7,9.2,41,0.00,,,0.00,WSDL version 420,2013-01-16 07:53:00,
2013-01-16 18:58:00,80.5,54.6,29.80,ESE,104,3.6,6.7,41,0.00,,,0.00,WSDL version 420,2013-01-16 07:58:00,
2013-01-16 19:03:00,80.2,54.5,29.80,ENE,77,2.8,6.7,41,0.00,,,0.00,WSDL version 420,2013-01-16 08:03:00,
2013-01-16 19:08:00,-999.0,-99.9,29.80,NE,38,2.9,6.5,-999,0.00,,,0.00,WSDL version 420,2013-01-16 08:08:00,
2013-01-16 19:13:00,79.8,55.3,29.80,ENE,77,2.8,6.5,43,0.00,,,0.00,WSDL version 420,2013-01-16 08:13:00,
2013-01-16 19:18:00,79.6,55.6,29.80,East,98,2.9,7.4,44,0.00,,,0.00,WSDL version 420,2013-01-16 08:18:00,
2013-01-16 19:23:00,79.4,56.1,29.83,South,191,1.7,7.4,44,0.00,,,0.00,WSDL version 420,2013-01-16 08:23:00,
2013-01-16 19:28:00,79.3,56.2,29.83,East,90,1.8,4.0,46,0.00,,,0.00,WSDL version 420,2013-01-16 08:28:00,
2013-01-16 19:33:00,78.9,56.4,29.83,NE,39,2.5,4.7,46,0.00,,,0.00,WSDL version 420,2013-01-16 08:33:00,
2013-01-16 19:38:00,78.7,57.1,29.80,ENE,68,3.6,8.5,48,0.00,,,0.00,WSDL version 420,2013-01-16 08:38:00,
2013-01-16 19:43:00,78.5,57.5,29.80,ENE,59,3.4,8.5,49,0.00,,,0.00,WSDL version 420,2013-01-16 08:43:00,
2013-01-16 19:48:00,78.4,57.7,29.83,NE,51,1.8,6.0,49,0.00,,,0.00,WSDL version 420,2013-01-16 08:48:00,
2013-01-16 19:53:00,78.3,57.9,29.83,East,100,2.1,6.0,49,0.00,,,0.00,WSDL version 420,2013-01-16 08:53:00,
2013-01-16 19:58:00,78.0,58.1,29.83,ENE,68,2.2,4.3,51,0.00,,,0.00,WSDL version 420,2013-01-16 08:58:00,
2013-01-16 20:03:00,77.9,58.2,29.83,NE,56,2.7,5.8,51,0.00,,,0.00,WSDL version 420,2013-01-16 09:03:00,
2013-01-16 20:08:00,77.8,58.3,29.83,East,83,2.5,5.8,51,-99.99,,,-99.99,WSDL version 420,2013-01-16 09:08:00,
2013-01-16 20:13:00,77.5,58.2,29.83,East,96,1.6,4.0,52,0.00,,,0.00,WSDL version 420,2013-01-16 09:13:00,
2013-01-16 20:18:00,77.3,58.4,29.83,East,80,2.3,3.1,53,0.00,,,0.00,WSDL version 420,2013-01-16 09:18:00,
2013-01-16 20:23:00,77.1,58.7,29.83,ENE,77,2.4,3.8,53,0.00,,,0.00,WSDL version 420,2013-01-16 09:23:00,
2013-01-16 20:28:00,76.9,58.9,29.83,NNW,338,1.8,3.8,54,0.00,,,0.00,WSDL version 420,2013-01-16 09:28:00,
2013-01-16 20:33:00,76.6,58.9,29.83,NE,38,3.2,3.6,55,0.00,,,0.00,WSDL version 420,2013-01-16 09:33:00,
2013-01-16 20:38:00,76.5,59.3,29.83,ENE,60,2.8,5.6,56,0.00,,,0.00,WSDL version 420,2013-01-16 09:38:00,
2013-01-16 20:43:00,76.4,59.5,29.83,ENE,68,3.1,6.5,56,0.00,,,0.00,WSDL version 420,2013-01-16 09:43:00,
2013-01-16 20:48:00,76.2,59.6,29.83,East,80,2.0,6.5,57,0.00,,,0.00,WSDL version 420,2013-01-16 09:48:00,
2013-01-16 20:53:00,76.0,59.8,29.83,ENE,73,1.7,4.0,58,0.00,,,0.00,WSDL version 420,2013-01-16 09:53:00,
2013-01-16 20:58:00,75.8,60.0,29.83,East,82,1.5,4.0,58,0.00,,,0.00,WSDL version 420,2013-01-16 09:58:00,
2013-01-16 21:03:00,75.6,60.2,29.83,East,83,3.2,4.3,60,0.00,,,0.00,WSDL version 420,2013-01-16 10:03:00,
2013-01-16 21:08:00,75.3,60.3,29.83,ESE,105,0.3,4.3,59,0.00,,,0.00,WSDL version 420,2013-01-16 10:08:00,
2013-01-16 21:13:00,75.1,60.0,29.83,ENE,70,2.1,3.8,61,0.00,,,0.00,WSDL version 420,2013-01-16 10:13:00,
2013-01-16 21:18:00,74.9,60.8,29.83,East,101,1.7,3.4,62,0.00,,,0.00,WSDL version 420,2013-01-16 10:18:00,
2013-01-16 21:23:00,74.6,60.3,29.83,ESE,106,1.4,3.4,61,0.00,,,0.00,WSDL version 420,2013-01-16 10:23:00,
2013-01-16 21:28:00,74.3,60.3,29.83,East,101,0.0,2.7,62,0.00,,,0.00,WSDL version 420,2013-01-16 10:28:00,
2013-01-16 21:33:00,74.0,60.2,29.83,East,98,0.3,2.7,62,0.00,,,0.00,WSDL version 420,2013-01-16 10:33:00,
2013-01-16 21:38:00,73.6,60.0,29.83,East,96,1.1,2.7,63,-99.99,,,-99.99,WSDL version 420,2013-01-16 10:38:00,
2013-01-16 21:43:00,73.2,60.2,29.83,East,98,0.8,2.7,64,0.00,,,0.00,WSDL version 420,2013-01-16 10:43:00,
2013-01-16 21:48:00,73.0,60.3,29.83,ESE,113,1.1,2.7,65,0.00,,,0.00,WSDL version 420,2013-01-16 10:48:00,
2013-01-16 21:53:00,72.7,60.4,29.83,East,90,1.0,2.7,66,0.00,,,0.00,WSDL version 420,2013-01-16 10:53:00,
2013-01-16 21:58:00,72.5,60.6,29.83,East,90,1.1,2.5,67,-99.99,,,-99.99,WSDL version 420,2013-01-16 10:58:00,
2013-01-16 22:03:00,72.3,60.8,29.83,SE,141,0.0,2.5,67,0.00,,,0.00,WSDL version 420,2013-01-16 11:03:00,
2013-01-16 22:13:00,72.1,61.0,29.83,ESE,116,0.0,2.7,68,0.00,,,0.00,WSDL version 420,2013-01-16 11:13:00,
2013-01-16 22:18:00,72.0,61.0,29.83,ESE,119,0.0,2.7,68,0.00,,,0.00,WSDL version 420,2013-01-16 11:18:00,
2013-01-16 22:23:00,71.8,61.0,29.83,ESE,105,0.9,2.7,69,0.00,,,0.00,WSDL version 420,2013-01-16 11:23:00,
2013-01-16 22:28:00,71.8,61.1,29.83,ESE,113,0.0,1.3,69,0.00,,,0.00,WSDL version 420,2013-01-16 11:28:00,
2013-01-16 22:33:00,71.7,60.6,29.85,ESE,113,0.0,1.3,68,-99.99,,,-99.99,WSDL version 420,2013-01-16 11:33:00,
2013-01-16 22:38:00,71.7,60.5,29.85,ESE,113,0.0,0.0,68,0.00,,,0.00,WSDL version 420,2013-01-16 11:38:00,
2013-01-16 22:43:00,71.5,60.6,29.85,ESE,113,0.0,0.0,69,0.00,,,0.00,WSDL version 420,2013-01-16 11:43:00,
2013-01-16 22:48:00,71.2,60.5,29.85,ESE,113,0.0,0.0,69,0.00,,,0.00,WSDL version 420,2013-01-16 11:48:00,
2013-01-16 22:53:00,71.1,60.6,29.85,ESE,116,1.2,2.5,70,0.00,,,0.00,WSDL version 420,2013-01-16 11:53:00,
2013-01-16 22:58:00,71.1,61.1,29.85,South,188,0.0,2.5,71,0.00,,,0.00,WSDL version 420,2013-01-16 11:58:00,
2013-01-16 23:03:00,-999.0,-99.9,29.85,SSW,203,0.4,2.2,-999,0.00,,,0.00,WSDL version 420,2013-01-16 12:03:00,
2013-01-16 23:08:00,71.1,61.6,29.85,SW,225,0.0,2.2,72,0.00,,,0.00,WSDL version 420,2013-01-16 12:08:00,
2013-01-16 23:13:00,71.1,61.4,29.85,SW,225,0.0,0.0,71,0.00,,,0.00,WSDL version 420,2013-01-16 12:13:00,
2013-01-16 23:18:00,70.9,61.1,29.85,SW,225,0.0,0.0,71,0.00,,,0.00,WSDL version 420,2013-01-16 12:18:00,
2013-01-16 23:23:00,70.7,60.9,29.85,SSW,203,0.0,0.9,72,0.00,,,0.00,WSDL version 420,2013-01-16 12:23:00,
2013-01-16 23:28:00,70.7,61.2,29.85,South,174,0.0,1.3,72,-99.99,,,-99.99,WSDL version 420,2013-01-16 12:28:00,
2013-01-16 23:33:00,70.5,61.5,29.85,South,190,0.5,2.9,74,0.00,,,0.00,WSDL version 420,2013-01-16 12:33:00,
2013-01-16 23:38:00,70.5,61.8,29.85,SSW,203,0.0,2.9,74,0.00,,,0.00,WSDL version 420,2013-01-16 12:38:00,
2013-01-16 23:43:00,70.5,61.8,29.85,SSE,151,0.0,2.2,74,0.00,,,0.00,WSDL version 420,2013-01-16 12:43:00,
2013-01-16 23:48:00,70.6,62.2,29.85,SE,138,1.5,2.9,76,0.00,,,0.00,WSDL version 420,2013-01-16 12:48:00,
2013-01-16 23:53:00,70.7,63.0,29.85,East,94,1.4,2.9,77,0.00,,,0.00,WSDL version 420,2013-01-16 12:53:00,
2013-01-16 23:58:00,70.7,63.3,29.85,WSW,238,0.0,2.9,77,0.00,,,0.00,WSDL version 420,2013-01-16 12:58:00,